Fremont, MI

4:17 PM EST on December 08, 2019 (GMT -0500)
Fremont

Weather History for KFFX - November, 2019

Change the Weather History Date:

Sunday, November 17, 2019

  Actual Average (KMKG) Record (KMKG)
Temperature  
Mean Temperature 30 °F -  
Max Temperature 36 °F 46 °F 71 °F (1958)
Min Temperature 23 °F 34 °F 9 °F (1959)
Degree Days  
Heating Degree Days 36    
Moisture  
Dew Point 22 °F    
Average Humidity 71    
Maximum Humidity 82    
Minimum Humidity 61    
Precipitation  
Precipitation 0.00 in - - ()
Sea Level Pressure  
Sea Level Pressure 30.03 in    
Wind  
Wind Speed 4 mph ()    
Max Wind Speed 8 mph    
Max Gust Speed -    
Visibility 10.0 miles    
Events      
Averages and records for this station are not official NWS values.
T = Trace of Precipitation, MM = Missing Value Source: Averaged Metar Reports

Daily Weather History Graph

Daily Weather History Graph

Search for Another Location

Airport or City:

Astronomy

Nov. 17, 2019 Rise Set
Actual Time 7:39 AM EST 5:17 PM EST
Civil Twilight 7:08 AM EST 5:48 PM EST
Nautical Twilight 6:34 AM EST 6:23 PM EST
Astronomical Twilight 6:00 AM EST 6:57 PM EST
Moon 9:51 PM EST (11/17) 12:27 PM EST (11/17)
Length of Visible Light 10h 39m
Length of Day
9h 37m
Waning Gibbous, 73% of the Moon is Illuminated
Nov 17
Waning Gibbous
Nov 19
Last Quarter
Nov 26
New
Dec 4
First Quarter
Dec 12
Full

Hourly Weather History & Observations

Time (EST) Temp. Windchill Dew Point Humidity Pressure Visibility Wind Dir Wind Speed Gust Speed Precip Events Conditions
12:15 AM 26.6 °F 21.2 °F 15.4 °F 63% 30.26 in 10.0 mi ESE 4.6 mph - N/A   Clear
12:16 AM 26.6 °F 21.2 °F 15.4 °F 63% 30.26 in 10.0 mi ESE 4.6 mph - N/A   Clear
12:35 AM 26.2 °F 19.6 °F 16.0 °F 65% 30.25 in 10.0 mi ESE 5.8 mph - N/A   Clear
12:36 AM 26.2 °F 19.6 °F 16.2 °F 66% 30.25 in 10.0 mi ESE 5.8 mph - N/A   Clear
12:55 AM 26.2 °F 22.1 °F 16.7 °F 67% 30.25 in 10.0 mi East 3.5 mph - N/A   Scattered Clouds
1:15 AM 25.3 °F 21.1 °F 16.7 °F 70% 30.25 in 10.0 mi East 3.5 mph - N/A   Scattered Clouds
1:35 AM 25.9 °F 20.3 °F 16.7 °F 68% 30.23 in 10.0 mi East 4.6 mph - N/A   Clear
1:55 AM 26.1 °F 20.5 °F 17.2 °F 69% 30.23 in 10.0 mi East 4.6 mph - N/A   Clear
2:15 AM 25.3 °F 19.7 °F 16.7 °F 70% 30.22 in 10.0 mi East 4.6 mph - N/A   Clear
2:35 AM 24.8 °F 19.1 °F 17.2 °F 73% 30.22 in 10.0 mi East 4.6 mph - N/A   Clear
2:36 AM 24.8 °F 20.5 °F 17.2 °F 73% 30.22 in 10.0 mi East 3.5 mph - N/A   Clear
2:55 AM 24.6 °F 18.8 °F 17.6 °F 75% 30.21 in 10.0 mi ESE 4.6 mph - N/A   Clear
3:15 AM 24.8 °F 19.1 °F 18.0 °F 75% 30.21 in 10.0 mi ESE 4.6 mph - N/A   Clear
3:35 AM 24.6 °F 18.8 °F 18.0 °F 76% 30.20 in 10.0 mi ESE 4.6 mph - N/A   Clear
3:36 AM 24.6 °F 20.3 °F 18.0 °F 76% 30.20 in 10.0 mi ESE 3.5 mph - N/A   Clear
3:55 AM 24.6 °F 18.8 °F 18.0 °F 76% 30.19 in 10.0 mi ESE 4.6 mph - N/A   Clear
3:56 AM 24.6 °F 18.8 °F 18.0 °F 76% 30.19 in 10.0 mi ESE 4.6 mph - N/A   Clear
4:15 AM 24.6 °F 16.7 °F 18.1 °F 76% 30.18 in 10.0 mi ESE 6.9 mph - N/A   Clear
4:35 AM 24.6 °F 16.7 °F 18.1 °F 76% 30.18 in 10.0 mi ESE 6.9 mph - N/A   Clear
5:15 AM 24.8 °F 17.9 °F 18.1 °F 76% 30.16 in 10.0 mi ESE 5.8 mph - N/A   Clear
5:35 AM 24.8 °F 16.9 °F 18.3 °F 76% 30.15 in 10.0 mi ESE 6.9 mph - N/A   Clear
6:15 AM 23.9 °F 18.0 °F 18.3 °F 79% 30.14 in 10.0 mi ESE 4.6 mph - N/A   Clear
6:16 AM 23.9 °F 19.5 °F 18.3 °F 79% 30.14 in 10.0 mi ESE 3.5 mph - N/A   Clear
6:35 AM 23.7 °F 17.8 °F 18.3 °F 80% 30.13 in 10.0 mi ESE 4.6 mph - N/A   Clear
6:36 AM 23.7 °F 17.8 °F 18.3 °F 80% 30.13 in 10.0 mi ESE 4.6 mph - N/A   Clear
6:55 AM 23.7 °F 19.3 °F 18.5 °F 80% 30.13 in 10.0 mi ESE 3.5 mph - N/A   Clear
7:15 AM 23.4 °F 17.4 °F 18.5 °F 82% 30.12 in 10.0 mi ESE 4.6 mph - N/A   Clear
7:16 AM 23.4 °F 17.4 °F 18.5 °F 82% 30.12 in 10.0 mi ESE 4.6 mph - N/A   Clear
7:35 AM 23.7 °F 17.8 °F 18.7 °F 81% 30.12 in 10.0 mi ESE 4.6 mph - N/A   Clear
7:55 AM 23.7 °F 17.8 °F 18.9 °F 82% 30.11 in 10.0 mi ESE 4.6 mph - N/A   Clear
7:56 AM 23.7 °F 16.6 °F 18.9 °F 82% 30.11 in 10.0 mi ESE 5.8 mph - N/A   Clear
8:15 AM 24.6 °F 18.8 °F 19.4 °F 81% 30.10 in 10.0 mi ESE 4.6 mph - N/A   Clear
8:35 AM 25.2 °F 18.3 °F 19.4 °F 79% 30.10 in 10.0 mi SE 5.8 mph - N/A   Clear
8:55 AM 25.5 °F - 20.1 °F 80% 30.10 in 10.0 mi Calm Calm - N/A   Clear
9:15 AM 26.6 °F 22.6 °F 20.1 °F 77% 30.10 in 10.0 mi SE 3.5 mph - N/A   Clear
9:35 AM 27.9 °F 24.0 °F 20.7 °F 74% 30.08 in 10.0 mi SE 3.5 mph - N/A   Clear
9:36 AM 27.9 °F 24.0 °F 20.8 °F 75% 30.08 in 10.0 mi SE 3.5 mph - N/A   Clear
9:55 AM 29.1 °F - 21.0 °F 72% 30.07 in 10.0 mi Calm Calm - N/A   Clear
10:15 AM 29.1 °F 24.1 °F 20.7 °F 71% 30.07 in 10.0 mi South 4.6 mph - N/A   Clear
10:35 AM 30.9 °F 26.2 °F 21.2 °F 67% 30.05 in 10.0 mi ESE 4.6 mph - N/A   Clear
10:55 AM 31.6 °F 24.4 °F 21.4 °F 66% 30.04 in 10.0 mi SE 8.1 mph - N/A   Clear
11:15 AM 31.8 °F 28.5 °F 21.2 °F 65% 30.05 in 10.0 mi SSE 3.5 mph - N/A   Clear
11:16 AM 31.8 °F 28.5 °F 21.4 °F 65% 30.05 in 10.0 mi SSE 3.5 mph - N/A   Clear
11:35 AM 32.0 °F 28.7 °F 21.6 °F 65% 30.03 in 10.0 mi South 3.5 mph - N/A   Clear
11:55 AM 32.9 °F 28.5 °F 21.9 °F 64% 30.03 in 10.0 mi South 4.6 mph - N/A   Clear
12:15 PM 33.1 °F - 21.9 °F 64% 30.01 in 10.0 mi Calm Calm - N/A   Clear
12:35 PM 33.6 °F 28.4 °F 22.6 °F 64% 30.00 in 10.0 mi ESE 5.8 mph - N/A   Clear
1:15 PM 34.7 °F 31.8 °F 23.2 °F 63% 29.98 in 10.0 mi SSE 3.5 mph - N/A   Clear
1:16 PM 34.7 °F - 23.2 °F 63% 29.98 in 10.0 mi Calm Calm - N/A   Clear
1:35 PM 35.2 °F - 23.0 °F 61% 29.98 in 10.0 mi Calm Calm - N/A   Clear
1:36 PM 35.2 °F - 23.0 °F 61% 29.98 in 10.0 mi Calm Calm - N/A   Clear
1:55 PM 35.6 °F - 23.5 °F 62% 29.97 in 10.0 mi Calm Calm - N/A   Clear
1:56 PM 35.6 °F - 23.5 °F 62% 29.97 in 10.0 mi Calm Calm - N/A   Scattered Clouds
2:15 PM 36.0 °F 32.1 °F 23.9 °F 62% 29.97 in 10.0 mi SSW 4.6 mph - N/A   Scattered Clouds
2:35 PM 36.1 °F 32.3 °F 23.7 °F 61% 29.94 in 10.0 mi South 4.6 mph - N/A   Scattered Clouds
2:55 PM 36.3 °F 33.7 °F 23.9 °F 61% 29.94 in 10.0 mi SSE 3.5 mph - N/A   Mostly Cloudy
3:15 PM 36.1 °F 32.3 °F 24.3 °F 62% 29.93 in 10.0 mi ESE 4.6 mph - N/A   Overcast
3:35 PM 36.5 °F 31.0 °F 24.8 °F 63% 29.93 in 10.0 mi SSE 6.9 mph - N/A   Overcast
3:55 PM 36.1 °F 33.5 °F 25.3 °F 65% 29.93 in 10.0 mi SSE 3.5 mph - N/A   Overcast
4:15 PM 36.1 °F 33.5 °F 25.7 °F 66% 29.92 in 10.0 mi SE 3.5 mph - N/A   Overcast
4:35 PM 36.1 °F 33.5 °F 25.7 °F 66% 29.92 in 10.0 mi SE 3.5 mph - N/A   Overcast
4:55 PM 36.0 °F 33.3 °F 25.9 °F 67% 29.91 in 10.0 mi SE 3.5 mph - N/A   Overcast
5:15 PM 36.0 °F - 26.1 °F 67% 29.91 in 10.0 mi Calm Calm - N/A   Overcast
5:35 PM 35.6 °F 32.8 °F 26.6 °F 70% 29.91 in 10.0 mi SE 3.5 mph - N/A   Overcast
5:55 PM 35.2 °F - 26.6 °F 71% 29.90 in 10.0 mi Calm Calm - N/A   Overcast
5:56 PM 35.2 °F - 26.6 °F 71% 29.91 in 10.0 mi Calm Calm - N/A   Overcast
6:15 PM 35.6 °F - 26.6 °F 70% 29.91 in 10.0 mi Calm Calm - N/A   Overcast
6:35 PM 35.4 °F - 26.2 °F 69% 29.91 in 10.0 mi Calm Calm - N/A   Overcast
6:55 PM 35.2 °F 32.4 °F 26.6 °F 71% 29.89 in 10.0 mi ESE 3.5 mph - N/A   Overcast
7:15 PM 35.6 °F 32.8 °F 26.6 °F 70% 29.89 in 10.0 mi East 3.5 mph - N/A   Overcast
7:35 PM 35.8 °F 33.0 °F 26.6 °F 69% 29.89 in 10.0 mi ESE 3.5 mph - N/A   Overcast
7:55 PM 35.8 °F - 27.0 °F 70% 29.88 in 10.0 mi Calm Calm - N/A   Overcast
8:15 PM 35.8 °F - 27.1 °F 71% 29.88 in 10.0 mi Calm Calm - N/A   Overcast
8:35 PM 35.8 °F 33.0 °F 27.3 °F 71% 29.88 in 10.0 mi ESE 3.5 mph - N/A   Overcast
8:36 PM 35.8 °F 33.0 °F 27.3 °F 71% 29.87 in 10.0 mi ESE 3.5 mph - N/A   Overcast
9:15 PM 35.6 °F 32.8 °F 27.3 °F 72% 29.87 in 10.0 mi SE 3.5 mph - N/A   Overcast
9:16 PM 35.6 °F 31.7 °F 27.3 °F 72% 29.87 in 10.0 mi SE 4.6 mph - N/A   Overcast
9:35 PM 35.6 °F 32.8 °F 27.3 °F 72% 29.86 in 10.0 mi SE 3.5 mph - N/A   Overcast
9:36 PM 35.6 °F 32.8 °F 27.3 °F 72% 29.86 in 10.0 mi SE 3.5 mph - N/A   Overcast
9:55 PM 35.6 °F 32.8 °F 27.3 °F 72% 29.86 in 10.0 mi SSE 3.5 mph - N/A   Overcast
10:15 PM 35.6 °F - 27.5 °F 72% 29.86 in 10.0 mi Calm Calm - N/A   Mostly Cloudy
10:35 PM 35.4 °F - 27.5 °F 73% 29.85 in 10.0 mi Calm Calm - N/A   Mostly Cloudy
10:55 PM 35.1 °F - 28.2 °F 76% 29.85 in 10.0 mi Calm Calm - N/A   Overcast
11:15 PM 35.2 °F - 28.2 °F 76% 29.84 in 10.0 mi Calm Calm - N/A   Overcast
11:35 PM 35.6 °F - 28.4 °F 75% 29.84 in 10.0 mi Calm Calm - N/A   Overcast
11:55 PM 35.6 °F 32.8 °F 28.6 °F 76% 29.84 in 10.0 mi SSE 3.5 mph - N/A   Overcast